Wilmington, OH

4:58 AM EST on January 21, 2018 (GMT -0500)
Airborne

Weather History for KILN - January, 2013

Change the Weather History Date:

Monday, January 7, 2013

  Actual Average (KFFO) Record (KFFO)
Temperature  
Mean Temperature 32 °F -  
Max Temperature 37 °F 36 °F 66 °F (2008)
Min Temperature 26 °F 21 °F -8 °F (2014)
Degree Days  
Heating Degree Days 34    
Moisture  
Dew Point 24 °F    
Average Humidity 81    
Maximum Humidity 93    
Minimum Humidity 67    
Precipitation  
Precipitation 0.00 in - - ()
Sea Level Pressure  
Sea Level Pressure 30.43 in    
Wind  
Wind Speed 5 mph (SSW)    
Max Wind Speed 8 mph    
Max Gust Speed -    
Visibility 5 miles    
Events      
Averages and records for this station are not official NWS values.
T = Trace of Precipitation, MM = Missing Value Source: NWS Daily Summary

Daily Weather History Graph

Daily Weather History Graph

Search for Another Location

Airport or City:

Trip Planner

Search our weather history database for the weather conditions in past years. The results will help you decide how hot, cold, wet, or windy it might be!

Date:

Astronomy

Jan. 07, 2013 Rise Set
Actual Time 7:55 AM EST 5:28 PM EST
Civil Twilight 7:25 AM EST 5:57 PM EST
Nautical Twilight 6:52 AM EST 6:31 PM EST
Astronomical Twilight 6:19 AM EST 7:03 PM EST
Moon 3:18 AM EST (1/7) 1:37 PM EST (1/7)
Length of Visible Light 10h 32m
Length of Day
9h 32m
Waning Crescent, 23% of the Moon is Illuminated
Jan 7
Waning Crescent
Jan 11
New
Jan 18
First Quarter
Jan 26
Full
Feb 3
Last Quarter

Hourly Weather History & Observations

Time (EST) Temp. Windchill Dew Point Humidity Pressure Visibility Wind Dir Wind Speed Gust Speed Precip Events Conditions
12:54 AM 27.0 °F 18.7 °F 23.0 °F 85% 30.40 in 4.0 mi West 8.1 mph - N/A   Overcast
1:32 AM 26.6 °F 22.6 °F 23.0 °F 86% 30.32 in 4.0 mi West 3.5 mph - N/A   Overcast
1:54 AM 27.0 °F 23.0 °F 23.0 °F 85% 30.40 in 4.0 mi West 3.5 mph - N/A   Overcast
2:54 AM 27.0 °F 21.6 °F 23.0 °F 85% 30.43 in 4.0 mi West 4.6 mph - N/A   Overcast
3:54 AM 27.0 °F 21.6 °F 23.0 °F 85% 30.44 in 4.0 mi WSW 4.6 mph - N/A   Overcast
4:54 AM 27.0 °F 21.6 °F 23.0 °F 85% 30.45 in 4.0 mi West 4.6 mph - N/A   Overcast
5:54 AM 27.0 °F 20.5 °F 23.0 °F 85% 30.46 in 4.0 mi SW 5.8 mph - N/A   Overcast
6:54 AM 27.0 °F 20.5 °F 23.0 °F 85% 30.50 in 4.0 mi WSW 5.8 mph - N/A   Overcast
7:54 AM 26.1 °F 19.4 °F 23.0 °F 88% 30.52 in 4.0 mi SW 5.8 mph - N/A   Overcast
8:39 AM 26.6 °F 21.2 °F 24.8 °F 93% 30.44 in 2.5 mi SSW 4.6 mph - N/A   Overcast
8:54 AM 27.0 °F 21.6 °F 24.1 °F 89% 30.54 in 2.5 mi SW 4.6 mph - N/A   Overcast
9:16 AM 28.4 °F 22.2 °F 24.8 °F 86% 30.44 in 3.0 mi SSW 5.8 mph - N/A   Overcast
9:39 AM 28.4 °F 22.2 °F 24.8 °F 86% 30.45 in 3.0 mi SSW 5.8 mph - N/A   Haze
9:54 AM 28.9 °F 23.9 °F 24.1 °F 82% 30.54 in 3.0 mi South 4.6 mph - N/A   Haze
10:54 AM 30.9 °F 26.2 °F 25.0 °F 79% 30.53 in 4.0 mi South 4.6 mph - N/A   Haze
11:54 AM 33.1 °F 26.1 °F 25.0 °F 72% 30.50 in 5.0 mi SSE 8.1 mph - N/A   Haze
12:54 PM 34.0 °F 27.2 °F 25.0 °F 70% 30.46 in 8.0 mi South 8.1 mph - N/A   Clear
2:54 PM 37.0 °F 32.4 °F 27.0 °F 67% 30.42 in 8.0 mi South 5.8 mph - N/A   Clear
3:54 PM 37.0 °F 32.4 °F 27.0 °F 67% 30.42 in 8.0 mi South 5.8 mph - N/A   Clear
4:54 PM 35.1 °F 30.1 °F 27.0 °F 72% 30.41 in 7.0 mi South 5.8 mph - N/A   Clear
6:54 PM 30.0 °F 26.5 °F 24.1 °F 79% 30.38 in 8.0 mi South 3.5 mph - N/A   Clear
7:54 PM 28.0 °F 21.7 °F 23.0 °F 81% 30.36 in 7.0 mi SSE 5.8 mph - N/A   Clear
8:54 PM 28.9 °F 25.2 °F 23.0 °F 78% 30.35 in 8.0 mi SSE 3.5 mph - N/A   Clear
9:54 PM 27.0 °F - 21.9 °F 81% 30.33 in 8.0 mi Calm Calm - N/A   Clear
10:54 PM 27.0 °F - 21.0 °F 78% 30.32 in 8.0 mi Calm Calm - N/A   Clear
11:54 PM 27.0 °F - 21.9 °F 81% 30.33 in 8.0 mi Calm Calm - N/A   Clear